QPF
0.03 0.02 0.03 0.06 0.07 0.06 0.07 0.06 0.06 0.07 0.07 0.05 0.04 0.06 0.08 0.06 0.05 0.05 0.05 0.05 0.05 0.05 0.05 0.05 0.05 0.04 0.04 0.04 0.05 0.05 0.04 0.04 0.04 0.06 0.06 0.08 0.08 0.07 0.06 0.07 0.07 0.08 0.12
0.02 0.02 0.05 0.07 0.06 0.05 0.05 0.05 0.05 0.06 0.06 0.05 0.05 0.05 0.05 0.05 0.06 0.06 0.06 0.06 0.06 0.05 0.05 0.04 0.04 0.03 0.03 0.04 0.03 0.03 0.04 0.04 0.03 0.03 0.04 0.05 0.06 0.06 0.04 0.06 0.07 0.10 0.11
0.01 0.04 0.07 0.07 0.05 0.05 0.04 0.03 0.03 0.04 0.05 0.07 0.05 0.05 0.05 0.05 0.06 0.07 0.06 0.05 0.04 0.04 0.04 0.04 0.04 0.03 0.03 0.03 0.03 0.04 0.03 0.03 0.03 0.04 0.05 0.07 0.06 0.03 0.04 0.05 0.05 0.07 0.07
0.02 0.06 0.06 0.06 0.06 0.04 0.04 0.04 0.03 0.04 0.04 0.05 0.04 0.05 0.05 0.05 0.07 0.07 0.06 0.05 0.03 0.04 0.04 0.04 0.04 0.03 0.04 0.04 0.05 0.05 0.05 0.03 0.03 0.04 0.07 0.09 0.06 0.03 0.04 0.04 0.06 0.07 0.06
0.03 0.05 0.06 0.08 0.08 0.04 0.05 0.04 0.03 0.03 0.05 0.05 0.05 0.07 0.06 0.06 0.08 0.08 0.07 0.05 0.04 0.04 0.04 0.04 0.04 0.04 0.04 0.05 0.07 0.07 0.06 0.05 0.04 0.05 0.06 0.08 0.07 0.05 0.04 0.05 0.06 0.06 0.08
0.04 0.05 0.10 0.10 0.07 0.04 0.04 0.05 0.05 0.04 0.07 0.07 0.06 0.06 0.06 0.05 0.06 0.08 0.07 0.05 0.05 0.05 0.04 0.03 0.04 0.05 0.05 0.05 0.05 0.05 0.06 0.05 0.05 0.05 0.06 0.08 0.08 0.06 0.04 0.03 0.04 0.05 0.07
0.03 0.04 0.07 0.08 0.07 0.05 0.05 0.06 0.08 0.07 0.08 0.07 0.05 0.04 0.04 0.05 0.06 0.06 0.05 0.04 0.05 0.05 0.05 0.04 0.04 0.05 0.06 0.06 0.06 0.05 0.04 0.04 0.06 0.06 0.06 0.06 0.06 0.06 0.06 0.04 0.04 0.05 0.05
0.02 0.04 0.06 0.09 0.09 0.07 0.07 0.08 0.09 0.08 0.09 0.07 0.04 0.03 0.03 0.04 0.04 0.04 0.04 0.04 0.04 0.05 0.05 0.04 0.05 0.05 0.06 0.07 0.07 0.05 0.04 0.03 0.05 0.05 0.04 0.04 0.04 0.05 0.05 0.03 0.03 0.04 0.05
0.03 0.04 0.05 0.05 0.05 0.05 0.06 0.06 0.06 0.06 0.05 0.03 0.02 0.02 0.03 0.02 0.02 0.03 0.03 0.03 0.03 0.04 0.04 0.04 0.05 0.04 0.05 0.07 0.07 0.05 0.03 0.04 0.05 0.05 0.03 0.04 0.04 0.03 0.02 0.02 0.02 0.03 0.04
0.02 0.02 0.02 0.03 0.03 0.04 0.05 0.04 0.03 0.03 0.02 0.02 0.01 0.01 0.02 0.01 0.02 0.03 0.03 0.02 0.02 0.02 0.03 0.03 0.04 0.04 0.05 0.11 0.15 0.09 0.05 0.05 0.05 0.04 0.05 0.05 0.03 0.03 0.02 0.03 0.03 0.03 0.03
0.03 0.02 0.01 0.01 0.01 0.01 0.02 0.01 0.01 0.01 0.01 0.01 0.00 0.00 0.02 0.03 0.02 0.03 0.02 0.03 0.02 0.02 0.02 0.02 0.03 0.05 0.05 0.08 0.11 0.09 0.08 0.07 0.05 0.05 0.05 0.05 0.04 0.03 0.03 0.03 0.04 0.04 0.03
0.06 0.04 0.02 0.01 0.01 0.01 0.01 0.01 0.02 0.01 0.01 0.01 0.00 0.00 0.02 0.02 0.02 0.03 0.01 0.02 0.02 0.02 0.02 0.02 0.03 0.04 0.05 0.05 0.06 0.08 0.09 0.07 0.05 0.05 0.06 0.06 0.06 0.05 0.04 0.04 0.05 0.06 0.04
0.08 0.07 0.03 0.02 0.01 0.03 0.03 0.03 0.03 0.03 0.02 0.01 0.00 0.00 0.00 0.01 0.02 0.02 0.03 0.02 0.02 0.01 0.02 0.02 0.02 0.02 0.04 0.04 0.06 0.10 0.11 0.10 0.07 0.07 0.07 0.07 0.06 0.06 0.06 0.05 0.06 0.07 0.06
0.06 0.07 0.04 0.02 0.03 0.03 0.02 0.02 0.02 0.02 0.01 0.02 0.01 0.01 0.00 0.01 0.01 0.01 0.02 0.03 0.03 0.01 0.01 0.02 0.02 0.01 0.02 0.03 0.05 0.07 0.10 0.11 0.09 0.08 0.07 0.07 0.07 0.07 0.08 0.07 0.06 0.06 0.06
0.03 0.05 0.04 0.02 0.02 0.01 0.02 0.02 0.02 0.02 0.01 0.01 0.01 0.01 0.01 0.01 0.01 0.01 0.01 0.01 0.01 0.01 0.00 0.01 0.02 0.02 0.02 0.03 0.04 0.05 0.06 0.07 0.08 0.08 0.07 0.06 0.06 0.08 0.10 0.10 0.11 0.09 0.06
0.02 0.03 0.03 0.02 0.02 0.02 0.01 0.01 0.01 0.01 0.01 0.01 0.00 0.00 0.00 0.00 0.00 0.00 0.00 0.00 0.00 0.00 0.00 0.00 0.01 0.01 0.02 0.02 0.03 0.04 0.05 0.05 0.06 0.07 0.05 0.04 0.05 0.07 0.11 0.13 0.14 0.12 0.12
0.02 0.01 0.01 0.01 0.02 0.02 0.01 0.01 0.01 0.01 0.01 0.00 0.00 0.00 0.00 0.00 0.00 0.00 0.00 0.01 0.00 0.00 0.00 0.00 0.00 0.01 0.01 0.01 0.02 0.02 0.02 0.03 0.04 0.03 0.03 0.03 0.03 0.04 0.07 0.08 0.08 0.09 0.10
0.02 0.02 0.02 0.01 0.01 0.01 0.01 0.02 0.01 0.01 0.01 0.00 0.00 0.00 0.00 0.01 0.00 0.00 0.00 0.01 0.00 0.00 0.00 0.00 0.01 0.01 0.01 0.01 0.01 0.01 0.01 0.01 0.02 0.02 0.02 0.02 0.02 0.02 0.02 0.02 0.03 0.06 0.06
0.02 0.02 0.03 0.04 0.04 0.04 0.04 0.04 0.02 0.01 0.01 0.01 0.01 0.01 0.01 0.01 0.01 0.01 0.01 0.00 0.00 0.00 0.01 0.01 0.01 0.01 0.01 0.02 0.01 0.01 0.01 0.01 0.01 0.01 0.01 0.01 0.01 0.03 0.03 0.02 0.01 0.03 0.04
0.01 0.02 0.03 0.04 0.05 0.04 0.04 0.04 0.03 0.02 0.03 0.03 0.03 0.03 0.03 0.02 0.01 0.01 0.01 0.01 0.01 0.01 0.01 0.01 0.02 0.02 0.02 0.02 0.01 0.01 0.00 0.01 0.01 0.01 0.01 0.01 0.01 0.02 0.04 0.03 0.02 0.01 0.02
0.00 0.01 0.01 0.03 0.03 0.03 0.03 0.02 0.03 0.03 0.04 0.04 0.03 0.02 0.02 0.02 0.01 0.00 0.00 0.01 0.01 0.01 0.01 0.01 0.01 0.02 0.02 0.01 0.02 0.01 0.01 0.01 0.01 0.01 0.01 0.01 0.01 0.02 0.03 0.05 0.04 0.03 0.03
0.00 0.01 0.01 0.02 0.02 0.02 0.02 0.03 0.02 0.02 0.03 0.03 0.02 0.02 0.03 0.02 0.01 0.00 0.00 0.01 0.01 0.01 0.01 0.01 0.01 0.02 0.02 0.01 0.02 0.03 0.02 0.02 0.01 0.01 0.01 0.01 0.02 0.02 0.02 0.02 0.03 0.04 0.07
0.00 0.00 0.01 0.01 0.01 0.01 0.01 0.02 0.01 0.02 0.02 0.03 0.03 0.05 0.06 0.04 0.02 0.00 0.00 0.01 0.00 0.00 0.01 0.01 0.01 0.01 0.01 0.01 0.01 0.03 0.04 0.04 0.03 0.02 0.01 0.02 0.03 0.03 0.02 0.02 0.02 0.02 0.04
0.00 0.01 0.01 0.01 0.01 0.02 0.02 0.02 0.01 0.02 0.02 0.02 0.02 0.03 0.03 0.02 0.01 0.01 0.00 0.01 0.01 0.01 0.01 0.01 0.00 0.01 0.01 0.02 0.01 0.02 0.02 0.03 0.04 0.03 0.02 0.04 0.05 0.04 0.02 0.01 0.01 0.01 0.01
0.00 0.00 0.01 0.01 0.01 0.02 0.03 0.02 0.01 0.01 0.01 0.01 0.01 0.01 0.01 0.01 0.01 0.01 0.00 0.01 0.01 0.01 0.01 0.01 0.01 0.01 0.01 0.03 0.03 0.02 0.01 0.02 0.03 0.03 0.03 0.05 0.07 0.05 0.02 0.01 0.01 0.01 0.01
0.00 0.01 0.01 0.01 0.01 0.01 0.01 0.02 0.02 0.01 0.01 0.00 0.01 0.01 0.01 0.01 0.01 0.01 0.01 0.01 0.01 0.01 0.01 0.01 0.02 0.02 0.03 0.04 0.03 0.03 0.03 0.04 0.04 0.04 0.03 0.04 0.06 0.04 0.02 0.01 0.01 0.01 0.02
MSLP
1014.25 1013.46 1012.78 1012.27 1011.94 1011.77 1011.68 1011.63 1011.55 1011.42 1011.24 1011.03 1010.85 1010.70 1010.61 1010.58 1010.57 1010.54 1010.48 1010.38 1010.24 1010.09 1009.95 1009.82 1009.71 1009.58 1009.39 1009.12 1008.76 1008.34 1007.92 1007.58 1007.40 1007.44 1007.70 1008.15 1008.70 1009.24 1009.68 1009.94 1010.01 1009.91 1009.74
1014.23 1013.53 1012.95 1012.53 1012.28 1012.16 1012.10 1012.04 1011.93 1011.75 1011.51 1011.26 1011.04 1010.89 1010.82 1010.81 1010.83 1010.83 1010.77 1010.64 1010.46 1010.26 1010.07 1009.90 1009.78 1009.68 1009.55 1009.38 1009.14 1008.85 1008.55 1008.30 1008.18 1008.24 1008.48 1008.86 1009.31 1009.74 1010.06 1010.21 1010.17 1010.00 1009.77
1014.18 1013.57 1013.08 1012.76 1012.59 1012.53 1012.51 1012.46 1012.33 1012.12 1011.85 1011.57 1011.32 1011.17 1011.10 1011.10 1011.13 1011.13 1011.05 1010.90 1010.68 1010.43 1010.19 1010.00 1009.87 1009.79 1009.72 1009.63 1009.49 1009.30 1009.10 1008.93 1008.85 1008.92 1009.12 1009.44 1009.81 1010.14 1010.37 1010.43 1010.34 1010.13 1009.88
1014.10 1013.58 1013.18 1012.95 1012.86 1012.86 1012.89 1012.86 1012.73 1012.51 1012.22 1011.92 1011.66 1011.49 1011.42 1011.41 1011.43 1011.41 1011.32 1011.13 1010.88 1010.60 1010.33 1010.12 1009.99 1009.93 1009.90 1009.86 1009.79 1009.67 1009.53 1009.41 1009.36 1009.41 1009.58 1009.85 1010.14 1010.41 1010.57 1010.59 1010.48 1010.26 1010.03
1014.04 1013.58 1013.26 1013.10 1013.08 1013.14 1013.21 1013.20 1013.09 1012.87 1012.57 1012.26 1011.99 1011.81 1011.72 1011.69 1011.69 1011.65 1011.54 1011.34 1011.07 1010.77 1010.49 1010.28 1010.15 1010.10 1010.09 1010.08 1010.03 1009.95 1009.84 1009.74 1009.68 1009.72 1009.86 1010.07 1010.32 1010.53 1010.67 1010.68 1010.57 1010.38 1010.19
1014.04 1013.63 1013.35 1013.25 1013.27 1013.38 1013.47 1013.49 1013.40 1013.18 1012.88 1012.55 1012.27 1012.07 1011.95 1011.91 1011.88 1011.83 1011.70 1011.50 1011.23 1010.94 1010.67 1010.46 1010.34 1010.28 1010.27 1010.26 1010.22 1010.13 1010.02 1009.91 1009.85 1009.87 1009.97 1010.16 1010.37 1010.56 1010.68 1010.70 1010.62 1010.47 1010.31
1014.15 1013.76 1013.51 1013.43 1013.49 1013.61 1013.72 1013.74 1013.64 1013.42 1013.11 1012.78 1012.48 1012.25 1012.12 1012.04 1012.00 1011.93 1011.80 1011.61 1011.35 1011.09 1010.84 1010.65 1010.52 1010.46 1010.43 1010.40 1010.33 1010.23 1010.10 1009.98 1009.91 1009.91 1010.00 1010.16 1010.36 1010.54 1010.66 1010.69 1010.63 1010.51 1010.39
1014.41 1014.01 1013.78 1013.70 1013.76 1013.87 1013.97 1013.97 1013.86 1013.62 1013.30 1012.95 1012.64 1012.39 1012.23 1012.13 1012.06 1011.98 1011.86 1011.68 1011.45 1011.21 1010.98 1010.81 1010.69 1010.61 1010.55 1010.49 1010.39 1010.26 1010.11 1009.99 1009.91 1009.91 1010.00 1010.16 1010.35 1010.53 1010.64 1010.67 1010.62 1010.52 1010.41
1014.81 1014.42 1014.18 1014.10 1014.14 1014.22 1014.28 1014.25 1014.09 1013.83 1013.49 1013.13 1012.80 1012.54 1012.35 1012.24 1012.15 1012.05 1011.92 1011.75 1011.54 1011.32 1011.12 1010.95 1010.82 1010.72 1010.63 1010.53 1010.40 1010.25 1010.09 1009.97 1009.90 1009.92 1010.03 1010.20 1010.39 1010.57 1010.67 1010.69 1010.63 1010.52 1010.40
1015.32 1014.95 1014.72 1014.63 1014.64 1014.68 1014.68 1014.59 1014.40 1014.10 1013.74 1013.37 1013.04 1012.77 1012.57 1012.43 1012.32 1012.20 1012.06 1011.88 1011.67 1011.46 1011.26 1011.08 1010.94 1010.81 1010.69 1010.55 1010.40 1010.23 1010.07 1009.96 1009.92 1009.97 1010.10 1010.29 1010.49 1010.66 1010.75 1010.75 1010.67 1010.52 1010.37
1015.89 1015.57 1015.36 1015.27 1015.25 1015.24 1015.18 1015.04 1014.80 1014.48 1014.11 1013.75 1013.42 1013.15 1012.94 1012.79 1012.65 1012.50 1012.33 1012.12 1011.89 1011.67 1011.45 1011.26 1011.09 1010.93 1010.77 1010.60 1010.41 1010.23 1010.07 1009.97 1009.96 1010.04 1010.20 1010.41 1010.62 1010.79 1010.87 1010.85 1010.73 1010.55 1010.36
1016.48 1016.22 1016.06 1015.98 1015.94 1015.89 1015.78 1015.59 1015.32 1014.98 1014.62 1014.28 1013.97 1013.72 1013.51 1013.33 1013.17 1012.97 1012.76 1012.51 1012.25 1011.99 1011.74 1011.52 1011.32 1011.12 1010.92 1010.71 1010.49 1010.29 1010.12 1010.03 1010.02 1010.11 1010.29 1010.51 1010.73 1010.89 1010.97 1010.93 1010.79 1010.58 1010.37
1017.04 1016.86 1016.76 1016.71 1016.66 1016.57 1016.43 1016.21 1015.92 1015.60 1015.26 1014.96 1014.69 1014.46 1014.26 1014.07 1013.87 1013.63 1013.36 1013.06 1012.75 1012.45 1012.17 1011.91 1011.67 1011.43 1011.19 1010.93 1010.67 1010.43 1010.23 1010.10 1010.08 1010.16 1010.32 1010.53 1010.75 1010.91 1010.98 1010.94 1010.80 1010.60 1010.37
1017.53 1017.45 1017.41 1017.39 1017.34 1017.24 1017.07 1016.84 1016.57 1016.27 1015.98 1015.73 1015.51 1015.32 1015.14 1014.94 1014.70 1014.42 1014.10 1013.75 1013.39 1013.05 1012.73 1012.44 1012.16 1011.89 1011.59 1011.28 1010.96 1010.65 1010.38 1010.20 1010.11 1010.14 1010.26 1010.44 1010.63 1010.78 1010.86 1010.84 1010.73 1010.55 1010.34
1017.94 1017.95 1017.98 1017.99 1017.94 1017.84 1017.66 1017.44 1017.19 1016.94 1016.72 1016.53 1016.36 1016.21 1016.05 1015.84 1015.59 1015.27 1014.91 1014.52 1014.13 1013.76 1013.42 1013.10 1012.80 1012.48 1012.14 1011.76 1011.37 1010.97 1010.60 1010.31 1010.13 1010.05 1010.09 1010.20 1010.35 1010.49 1010.58 1010.60 1010.53 1010.41 1010.25
1018.29 1018.37 1018.44 1018.46 1018.42 1018.32 1018.15 1017.95 1017.74 1017.55 1017.39 1017.26 1017.15 1017.04 1016.89 1016.69 1016.42 1016.09 1015.70 1015.30 1014.90 1014.53 1014.18 1013.86 1013.54 1013.19 1012.81 1012.37 1011.88 1011.38 1010.89 1010.47 1010.14 1009.94 1009.85 1009.87 1009.95 1010.06 1010.16 1010.21 1010.21 1010.16 1010.07
1018.58 1018.70 1018.78 1018.81 1018.77 1018.67 1018.52 1018.35 1018.18 1018.05 1017.95 1017.88 1017.82 1017.73 1017.60 1017.40 1017.12 1016.78 1016.40 1016.01 1015.63 1015.28 1014.96 1014.65 1014.33 1013.98 1013.55 1013.05 1012.48 1011.87 1011.26 1010.69 1010.22 1009.86 1009.63 1009.53 1009.53 1009.58 1009.67 1009.75 1009.80 1009.82 1009.81
1018.84 1018.96 1019.04 1019.05 1019.01 1018.90 1018.77 1018.63 1018.52 1018.43 1018.39 1018.36 1018.32 1018.25 1018.13 1017.93 1017.65 1017.33 1016.97 1016.61 1016.27 1015.97 1015.69 1015.42 1015.12 1014.77 1014.33 1013.78 1013.15 1012.45 1011.73 1011.03 1010.41 1009.90 1009.53 1009.29 1009.18 1009.17 1009.21 1009.29 1009.38 1009.45 1009.49
1019.04 1019.15 1019.21 1019.20 1019.14 1019.05 1018.94 1018.84 1018.77 1018.73 1018.72 1018.71 1018.69 1018.61 1018.48 1018.28 1018.01 1017.71 1017.39 1017.08 1016.81 1016.57 1016.35 1016.12 1015.86 1015.52 1015.08 1014.52 1013.85 1013.10 1012.31 1011.52 1010.78 1010.15 1009.64 1009.28 1009.05 1008.93 1008.91 1008.95 1009.03 1009.11 1009.18
1019.19 1019.27 1019.30 1019.28 1019.21 1019.13 1019.06 1019.00 1018.97 1018.97 1018.98 1018.98 1018.95 1018.86 1018.71 1018.49 1018.24 1017.96 1017.69 1017.44 1017.23 1017.05 1016.90 1016.73 1016.50 1016.20 1015.77 1015.23 1014.57 1013.81 1012.99 1012.16 1011.36 1010.64 1010.03 1009.55 1009.20 1008.97 1008.85 1008.81 1008.83 1008.88 1008.93
1019.24 1019.30 1019.32 1019.29 1019.24 1019.19 1019.15 1019.15 1019.17 1019.20 1019.22 1019.21 1019.15 1019.04 1018.86 1018.64 1018.38 1018.13 1017.90 1017.71 1017.57 1017.45 1017.35 1017.22 1017.04 1016.77 1016.38 1015.88 1015.25 1014.54 1013.75 1012.94 1012.13 1011.38 1010.70 1010.13 1009.66 1009.31 1009.07 1008.92 1008.83 1008.80 1008.79
1019.17 1019.23 1019.25 1019.23 1019.21 1019.21 1019.24 1019.29 1019.36 1019.43 1019.46 1019.44 1019.36 1019.20 1019.00 1018.76 1018.51 1018.27 1018.08 1017.94 1017.84 1017.77 1017.70 1017.61 1017.46 1017.22 1016.88 1016.43 1015.88 1015.24 1014.54 1013.79 1013.03 1012.29 1011.60 1010.96 1010.40 1009.93 1009.55 1009.26 1009.04 1008.89 1008.78
1018.96 1019.04 1019.08 1019.10 1019.14 1019.21 1019.30 1019.43 1019.56 1019.66 1019.70 1019.68 1019.57 1019.39 1019.15 1018.89 1018.65 1018.43 1018.26 1018.15 1018.08 1018.04 1017.98 1017.90 1017.77 1017.55 1017.25 1016.87 1016.40 1015.87 1015.27 1014.63 1013.97 1013.28 1012.60 1011.93 1011.30 1010.73 1010.21 1009.78 1009.41 1009.12 1008.89
1018.60 1018.73 1018.82 1018.90 1019.00 1019.15 1019.33 1019.53 1019.72 1019.86 1019.93 1019.90 1019.78 1019.57 1019.32 1019.06 1018.81 1018.60 1018.45 1018.36 1018.30 1018.26 1018.20 1018.11 1017.97 1017.76 1017.49 1017.16 1016.78 1016.35 1015.88 1015.36 1014.80 1014.20 1013.56 1012.89 1012.22 1011.56 1010.94 1010.37 1009.86 1009.44 1009.08
1018.14 1018.33 1018.47 1018.62 1018.81 1019.04 1019.30 1019.57 1019.82 1020.01 1020.10 1020.08 1019.95 1019.74 1019.49 1019.22 1018.98 1018.78 1018.65 1018.56 1018.50 1018.44 1018.36 1018.25 1018.08 1017.86 1017.61 1017.32 1017.00 1016.66 1016.30 1015.89 1015.44 1014.92 1014.33 1013.69 1013.00 1012.29 1011.59 1010.92 1010.30 1009.76 1009.29
1017.61 1017.87 1018.09 1018.31 1018.56 1018.86 1019.19 1019.53 1019.83 1020.05 1020.17 1020.17 1020.05 1019.85 1019.61 1019.35 1019.13 1018.95 1018.82 1018.73 1018.66 1018.58 1018.47 1018.31 1018.12 1017.88 1017.61 1017.34 1017.07 1016.79 1016.50 1016.18 1015.81 1015.37 1014.84 1014.23 1013.55 1012.82 1012.08 1011.34 1010.66 1010.03 1009.48
Thickness
5773 5774 5773 5773 5773 5773 5773 5773 5773 5773 5773 5773 5773 5772 5771 5771 5771 5770 5770 5770 5770 5769 5769 5769 5769 5769 5768 5768 5769 5769 5769 5768 5768 5767 5767 5767 5767 5767 5768 5768 5768 5768 5769
5775 5773 5771 5771 5771 5771 5771 5771 5770 5770 5770 5770 5770 5769 5769 5768 5768 5768 5767 5767 5767 5766 5766 5766 5766 5766 5766 5766 5766 5766 5766 5766 5766 5765 5765 5765 5765 5765 5766 5766 5766 5766 5766
5775 5772 5769 5768 5768 5768 5768 5768 5767 5767 5767 5766 5766 5766 5766 5766 5765 5765 5765 5764 5764 5764 5764 5764 5763 5763 5763 5763 5763 5763 5763 5763 5763 5763 5763 5763 5763 5763 5763 5763 5764 5764 5764
5774 5770 5767 5766 5766 5765 5765 5765 5764 5764 5763 5763 5763 5763 5763 5763 5762 5762 5761 5761 5761 5761 5761 5761 5761 5761 5761 5760 5761 5761 5761 5761 5761 5761 5761 5761 5761 5760 5760 5761 5761 5761 5761
5771 5767 5764 5763 5763 5762 5762 5762 5761 5761 5760 5760 5760 5759 5759 5759 5759 5758 5757 5757 5757 5757 5757 5757 5758 5758 5758 5758 5758 5758 5758 5758 5758 5758 5758 5758 5757 5757 5757 5758 5758 5758 5759
5769 5765 5762 5761 5760 5760 5759 5759 5758 5758 5757 5757 5756 5756 5756 5756 5755 5754 5754 5753 5753 5753 5754 5754 5754 5754 5754 5755 5755 5755 5755 5756 5755 5755 5755 5754 5754 5754 5754 5754 5755 5755 5756
5767 5764 5760 5758 5757 5756 5756 5755 5755 5754 5754 5753 5753 5752 5752 5752 5751 5751 5750 5750 5750 5749 5750 5750 5750 5750 5751 5751 5752 5752 5752 5752 5752 5752 5751 5751 5750 5750 5750 5751 5751 5752 5752
5765 5762 5758 5756 5755 5754 5753 5752 5751 5751 5750 5750 5750 5749 5749 5748 5748 5747 5746 5746 5746 5746 5746 5746 5747 5747 5747 5748 5748 5749 5749 5749 5749 5748 5747 5747 5747 5747 5747 5747 5748 5748 5749
5764 5761 5757 5754 5752 5751 5750 5749 5748 5748 5747 5747 5747 5746 5746 5745 5744 5744 5743 5743 5743 5742 5743 5743 5743 5743 5744 5744 5745 5745 5745 5745 5745 5744 5743 5742 5742 5743 5743 5744 5744 5744 5745
5761 5760 5758 5754 5751 5749 5747 5746 5745 5745 5744 5744 5744 5743 5743 5742 5741 5741 5740 5739 5739 5739 5739 5740 5740 5740 5741 5741 5741 5741 5741 5741 5741 5740 5739 5738 5738 5739 5739 5739 5740 5740 5741
5756 5757 5756 5754 5751 5749 5746 5744 5743 5742 5742 5741 5741 5741 5740 5740 5739 5738 5737 5737 5736 5736 5736 5737 5737 5737 5738 5738 5738 5738 5738 5738 5737 5735 5734 5734 5734 5735 5735 5735 5736 5737 5738
5750 5752 5753 5752 5750 5748 5745 5742 5741 5741 5740 5740 5739 5739 5739 5738 5737 5735 5734 5734 5734 5733 5733 5734 5735 5735 5735 5736 5735 5735 5734 5734 5733 5731 5730 5730 5730 5730 5731 5731 5732 5733 5734
5749 5749 5750 5750 5748 5745 5743 5741 5740 5739 5738 5738 5738 5737 5736 5735 5734 5732 5731 5730 5730 5730 5730 5731 5732 5733 5733 5733 5732 5732 5731 5730 5728 5727 5726 5726 5726 5726 5727 5727 5728 5730 5730
5746 5746 5747 5748 5746 5744 5741 5740 5738 5736 5736 5735 5735 5734 5733 5732 5731 5730 5729 5728 5727 5727 5727 5728 5729 5729 5730 5729 5729 5728 5727 5726 5724 5723 5722 5722 5722 5722 5722 5723 5724 5726 5727
5743 5743 5744 5744 5743 5741 5739 5737 5735 5734 5733 5732 5731 5730 5729 5728 5728 5727 5726 5725 5724 5724 5724 5724 5725 5725 5724 5724 5724 5723 5722 5722 5721 5719 5718 5718 5718 5718 5718 5719 5719 5721 5722
5741 5740 5741 5740 5739 5738 5735 5733 5732 5731 5730 5729 5727 5727 5726 5725 5724 5723 5722 5721 5720 5720 5720 5720 5720 5719 5719 5719 5718 5718 5717 5717 5717 5715 5714 5713 5713 5714 5713 5714 5714 5714 5716
5741 5740 5738 5738 5736 5734 5732 5731 5729 5727 5726 5724 5723 5723 5722 5722 5721 5719 5718 5717 5716 5716 5715 5715 5715 5715 5714 5713 5713 5713 5713 5712 5712 5711 5710 5710 5709 5708 5708 5708 5708 5708 5709
5740 5738 5736 5736 5733 5731 5729 5727 5726 5724 5722 5721 5719 5719 5719 5718 5717 5715 5714 5712 5712 5712 5710 5709 5708 5707 5706 5706 5706 5707 5707 5707 5707 5708 5707 5706 5705 5704 5703 5703 5703 5703 5703
5738 5736 5733 5731 5729 5728 5726 5724 5722 5721 5718 5717 5715 5715 5714 5713 5712 5711 5709 5708 5708 5707 5705 5704 5702 5701 5699 5699 5700 5701 5701 5702 5702 5703 5703 5703 5702 5700 5699 5698 5698 5698 5698
5736 5734 5731 5728 5726 5724 5722 5720 5718 5716 5714 5713 5711 5710 5709 5708 5708 5707 5705 5704 5703 5701 5700 5699 5696 5696 5694 5694 5696 5696 5696 5697 5698 5698 5698 5698 5697 5696 5696 5695 5694 5693 5693
5733 5730 5728 5725 5723 5721 5717 5714 5711 5708 5709 5708 5707 5706 5705 5704 5703 5702 5701 5700 5699 5696 5695 5694 5692 5690 5689 5690 5688 5686 5690 5692 5693 5692 5692 5692 5692 5692 5692 5691 5691 5690 5689
5730 5728 5726 5723 5721 5719 5715 5713 5710 5708 5706 5705 5704 5702 5701 5700 5699 5698 5697 5695 5694 5692 5691 5690 5688 5685 5684 5686 5682 5678 5676 5678 5683 5687 5686 5686 5686 5687 5686 5687 5686 5685 5685
5727 5726 5725 5722 5719 5717 5714 5711 5708 5705 5702 5699 5698 5697 5697 5696 5695 5694 5693 5692 5690 5689 5686 5685 5684 5681 5677 5679 5680 5675 5669 5666 5671 5677 5679 5680 5681 5681 5681 5681 5681 5680 5680
5726 5725 5724 5721 5718 5715 5712 5707 5703 5698 5694 5694 5694 5693 5693 5692 5691 5690 5689 5688 5686 5685 5683 5682 5681 5678 5675 5672 5674 5674 5672 5670 5664 5663 5669 5673 5675 5675 5675 5676 5675 5675 5674
5725 5723 5721 5718 5715 5712 5709 5705 5700 5696 5693 5692 5691 5690 5689 5688 5687 5686 5685 5684 5683 5681 5679 5678 5676 5675 5672 5669 5668 5667 5667 5666 5666 5660 5658 5662 5665 5668 5669 5669 5669 5669 5669
5722 5719 5717 5713 5710 5709 5706 5702 5697 5693 5690 5688 5687 5685 5684 5684 5683 5682 5682 5680 5679 5677 5676 5674 5672 5670 5669 5667 5665 5663 5661 5659 5658 5657 5654 5655 5655 5659 5662 5663 5664 5664 5664